Regional Weather Roundup
Issued by NWS

Home | Current Version | Previous Version | Graphics & Text | Print | Product List | Glossary Off
Versions: 1 2 3 4 5 6 7 8 9 10 11 12 13 14 15 16 17 18 19 20 21 22 23 24 25 26 27 28 29 30 31 32 33 34 35 36 37 38 39 40 41 42 43 44 45 46 47 48 49 50

000
ASUS43 KDMX 021808
RWRIA

WEATHER ROUNDUP FOR IOWA
NATIONAL WEATHER SERVICE DES MOINES IA
100 PM CDT MON MAY 02 2016

NOTE: "FAIR" INDICATES FEW OR NO CLOUDS BELOW 12,000 FEET WITH NO
SIGNIFICANT WEATHER AND/OR OBSTRUCTIONS TO VISIBILITY.

* - THESE STATIONS ARE NOT NWS STATIONS...THUS NOT UNDER NWS
QUALITY CONTROL.  THEY ALSO DO NOT REPORT WEATHER SUCH
AS PRECIPITATION OR FOG.

IAZ001>003-012>014-020>022-031>034-043>046-021900-
   NORTHWEST IOWA

CITY           SKY/WX    TMP DP  RH WIND       PRES   REMARKS
CARROLL *      PTSUNNY   61  43  51 NE7       30.10F
CHEROKEE *     PTSUNNY   58  37  44 W5        30.10F
DENISON *      PTSUNNY   59  39  47 VRB7      30.09F
LE MARS *      PTSUNNY   61  39  44 N12       30.11F
ORANGE CITY *  PTSUNNY   61  39  44 N5        30.10F
SHELDON *      MOSUNNY   59  37  44 VRB6G12   30.08F
SIOUX CITY     SUNNY     64  39  39 N7        30.11F
6HR MIN TEMP:  36; 6HR MAX TEMP:  64;

SPENCER        MOSUNNY   60  33  36 VRB5      30.10F
6HR MIN TEMP:  35; 6HR MAX TEMP:  61;

STORM LAKE *     N/A     59  36  41 VRB7      30.11F
$$

IAZ055>058-069>071-079>083-090>094-021900-
   SOUTHWEST IOWA

CITY           SKY/WX    TMP DP  RH WIND       PRES   REMARKS
ATLANTIC *     PTSUNNY   59  43  55 NW5       30.10F
AUDUBON *      SUNNY     61  41  48 N8        30.11F
CLARINDA *       N/A    N/A N/A N/A MISG        N/A
COUNCIL BLFS * MOSUNNY   59  43  55 N6G14     30.11F
CRESTON *      MOSUNNY   59  45  58 NE12      30.11F
HARLAN  *      PTSUNNY   61  43  51 N9        30.14F
LAMONI         CLOUDY    57  45  64 NE13      30.10S
6HR MIN TEMP:  46; 6HR MAX TEMP:  57;

SHENANDOAH *   MOSUNNY   61  45  55 NE8       30.12F
$$

IAZ047>049-059>061-072>074-084-021900-
   CENTRAL IOWA

CITY           SKY/WX    TMP DP  RH WIND       PRES   REMARKS
AMES           CLOUDY    59  42  53 VRB5      30.10F
6HR MIN TEMP:  40; 6HR MAX TEMP:  59;

ANKENY *       SUNNY     59  41  51 VRB5G16   30.09F
BOONE *        CLOUDY    59  43  55 CALM      30.09F
CHARITON *     CLOUDY    59  45  58 NE10      30.09F
DES MOINES     MOSUNNY   60  41  49 VRB5      30.09F
6HR MIN TEMP:  43; 6HR MAX TEMP:  62;

GRINNELL*      MOSUNNY   59  45  58 N8        30.09F
KNOXVILLE *    MOSUNNY   57  41  54 N12       30.08F
MARSHALLTOWN   MOSUNNY   59  44  57 N6        30.09F
6HR MIN TEMP:  38; 6HR MAX TEMP:  60;

NEWTON *       MOSUNNY   59  46  63 N8G15     30.09S
$$

IAZ004>006-015-016-023>025-035-036-021900-
   NORTH CENTRAL IOWA

CITY           SKY/WX    TMP DP  RH WIND       PRES   REMARKS
ALGONA *       SUNNY     61  37  41 VRB6      30.10F
CLARION *      PTSUNNY   59  43  55 CALM      30.10F
ESTHERVILLE    CLOUDY    60  40  47 NW7       30.09F
6HR MIN TEMP:  39; 6HR MAX TEMP:  60;

FORT DODGE *   CLOUDY    57  43  58 CALM      30.11F
MASON CITY     MOSUNNY   60  42  51 W6        30.11F
6HR MIN TEMP:  36; 6HR MAX TEMP:  61;

FOREST CITY *  PTSUNNY   59  36  41 S3        30.09F
WEBSTER CITY * MOSUNNY   61  43  51 CALM      30.08F
IOWA FALLS *   CLOUDY    59  43  55 N3        30.11F
$$

IAZ007>011-017>019-026>030-037>042-050>054-066-021900-
   NORTHEAST IOWA

CITY           SKY/WX    TMP DP  RH WIND       PRES   REMARKS
CEDAR RAPIDS   CLOUDY    57  44  62 N7        30.08F
6HR MIN TEMP:  45; 6HR MAX TEMP:  58;

CHARLES CITY * PTSUNNY   61  41  48 CALM      30.10F
CLINTON *      MOSUNNY   59  42  53 E12       30.08F
DECORAH *      SUNNY     59  37  44 CALM      30.08F
DUBUQUE        MOSUNNY   58  41  53 NE9       30.08F
6HR MIN TEMP:  45; 6HR MAX TEMP:  58;

MONTICELLO *   MOSUNNY   59  39  47 VRB7      30.08F
OELWEIN *      SUNNY     59  39  47 VRB6      30.09F
WATERLOO       MOSUNNY   60  43  53 MISG      30.09F
6HR MIN TEMP:  36; 6HR MAX TEMP:  61;

$$

IAZ064-065-067-068-078-021900-
   EAST CENTRAL IOWA

CITY           SKY/WX    TMP DP  RH WIND       PRES   REMARKS
DAVENPORT      MOSUNNY   59  42  53 NE8       30.08F
6HR MIN TEMP:  47; 6HR MAX TEMP:  59;

IOWA CITY      CLOUDY    57  43  59 VRB3      30.10F
6HR MIN TEMP:  46; 6HR MAX TEMP:  57;

MT. PLEASANT * CLOUDY    55  47  76 NE7       30.10S
MUSCATINE *    CLOUDY    55  43  62 NE6       30.09F
QUAD CITIES    CLOUDY    59  41  51 E10       30.06F
6HR MIN TEMP:  49; 6HR MAX TEMP:  59;

$$

IAZ062-063-075>077-085>089-095>099-021900-
   SOUTHEAST IOWA

CITY           SKY/WX    TMP DP  RH WIND       PRES   REMARKS
BURLINGTON     CLOUDY    52  46  80 NE8       30.08S
6HR MIN TEMP:  48; 6HR MAX TEMP:  52;

FAIRFIELD *    CLOUDY    55  45  67 NE6G14    30.09F
FORT MADISON * CLOUDY    52  46  82 NE9       30.09F
KEOKUK *       CLOUDY    54  46  76 NE9       30.07F
OSKALOOSA *    CLOUDY    55  46  71 NE8       30.09F
OTTUMWA        PTSUNNY   57  44  62 N8        30.08F
6HR MIN TEMP:  41; 6HR MAX TEMP:  57;

WASHINGTON *   CLOUDY    55  45  67 VRB5G12   30.10F
$$

ABBREVIATIONS USED IN REMARKS
   TC - TEMPERATURES IN CELSIUS
  WCI - WIND CHILL INDEX
   HX - HEAT INDEX
  VSB - VISIBILITY
$$





USA.gov is the U.S. government's official web portal to all federal, state and local government web resources and services.